Wind_Speed
25 23 23 19 15 12 12 13 12 11 13 10 10 12 17 16 14 18 16 5 1 6 7 3 4 1 1 1 5 5 3 2 3 5 6 6 8 6 3 3 2 6 5 5
27 35 30 25 18 14 14 18 22 15 11 10 7 12 17 20 15 18 22 19 7 6 5 4 5 4 1 4 4 5 4 5 5 6 9 9 10 8 4 1 2 5 9 3
29 33 29 28 23 17 17 18 22 15 12 14 19 23 21 24 22 23 25 24 19 14 10 7 3 2 2 4 7 2 6 7 9 9 10 12 12 19 17 10 4 6 3 9
26 29 27 24 25 19 20 14 21 21 18 24 14 18 20 21 26 28 19 21 19 17 12 10 9 2 4 1 5 4 3 8 13 13 13 8 11 19 16 17 11 15 8 12
22 25 28 29 26 19 26 23 24 22 24 22 20 11 27 21 25 26 17 18 17 19 15 4 6 7 2 6 2 3 4 3 7 11 14 10 11 9 5 11 13 10 8 8
22 17 20 23 29 20 22 21 18 14 22 6 22 28 24 14 17 19 17 21 21 21 17 9 8 16 10 11 5 6 7 6 5 6 10 11 11 6 5 8 11 12 13 10
21 24 22 24 27 23 21 20 9 1 4 7 21 20 28 15 23 15 18 20 22 21 23 18 11 13 20 15 8 6 8 8 9 7 9 9 11 8 8 8 9 11 10 12
9 19 24 21 24 20 19 19 9 5 4 6 10 10 13 17 26 22 16 14 21 23 24 19 15 14 17 17 14 6 9 11 13 10 10 11 12 9 10 10 10 9 9 11
16 22 20 16 20 22 16 13 13 14 6 3 5 11 17 21 26 22 17 12 13 19 21 14 16 16 15 20 17 10 11 13 15 14 12 13 13 10 9 10 10 10 10 12
27 30 28 21 23 23 19 15 9 10 3 4 5 8 9 12 19 22 21 15 13 13 16 17 17 15 17 21 21 12 14 15 18 16 15 15 16 13 12 12 12 12 14 16
18 27 32 26 29 26 20 20 13 15 6 7 4 15 22 14 17 18 22 15 17 19 14 15 17 17 19 23 24 18 17 17 17 18 15 15 15 14 14 13 13 15 17 19
11 17 28 35 29 25 23 23 19 15 9 9 7 19 23 22 15 14 19 15 17 19 21 15 13 14 16 20 22 20 18 18 18 15 14 14 14 14 13 14 15 17 20 22
13 6 15 26 28 25 22 21 15 11 16 24 14 24 14 18 18 15 24 20 22 23 22 21 21 18 15 19 21 19 18 18 16 13 12 13 13 13 13 14 15 19 21 20
8 8 7 15 22 10 18 14 12 9 8 21 29 35 28 20 22 18 25 21 25 21 24 25 23 23 23 21 21 20 17 17 14 10 11 12 13 13 12 14 16 17 16 16
13 5 10 8 9 10 12 13 9 11 9 8 7 15 30 24 19 16 23 25 24 21 22 22 23 24 24 22 22 20 18 16 14 10 13 13 12 11 12 15 15 14 13 13
16 12 21 15 10 8 10 13 8 4 5 10 10 10 18 21 19 22 24 21 22 19 21 22 24 25 25 21 20 18 16 17 15 14 14 12 11 11 14 15 14 12 12 12
20 19 21 7 10 8 10 17 17 7 8 7 6 7 9 10 19 22 30 30 25 20 24 22 26 25 24 19 20 19 16 16 17 16 14 12 11 12 13 13 12 12 11 12
23 19 18 11 10 1 6 1 4 5 4 7 11 13 16 11 9 19 27 29 25 26 24 19 26 26 26 24 22 21 16 17 18 18 15 12 12 13 12 12 12 13 12 12
13 15 17 6 7 10 3 10 2 3 3 4 12 15 17 16 16 16 23 31 31 30 31 26 29 25 24 22 20 17 18 17 20 18 16 14 13 13 13 13 13 14 14 13
15 9 16 12 4 3 4 10 11 12 12 1 3 8 17 21 21 16 18 21 33 35 36 33 26 24 22 23 20 17 18 20 20 20 17 14 13 13 13 13 14 15 14 13
14 10 10 21 12 9 12 17 15 5 6 5 4 7 9 21 24 21 23 23 24 26 29 32 26 22 27 26 22 15 21 24 22 23 16 14 14 14 13 14 15 16 15 14
10 7 5 4 10 6 9 13 8 5 3 6 5 6 7 15 21 22 22 19 17 20 26 35 25 27 24 26 26 37 26 26 24 22 16 12 15 15 15 15 16 16 14 13
8 8 7 3 3 1 1 2 1 3 5 7 7 4 5 7 12 11 17 18 16 15 30 31 23 19 21 28 29 27 24 23 22 19 13 13 14 14 15 16 16 16 13 11
10 10 11 12 7 5 7 6 7 7 11 11 11 13 9 9 13 4 2 6 13 21 30 24 23 17 23 22 25 20 18 21 20 15 12 13 13 14 16 16 15 13 12 12
18 16 14 15 12 12 10 13 19 16 19 17 16 15 11 8 11 9 6 5 10 18 20 17 19 19 22 24 24 18 18 20 15 13 11 13 14 15 15 15 15 14 12 13
31 33 30 29 23 24 19 13 13 12 18 22 21 20 23 10 9 14 14 6 11 12 14 18 20 19 23 22 15 13 16 14 13 11 11 13 14 15 16 16 16 12 13 12
Wind_Direction
232 236 234 233 252 275 289 306 284 313 282 307 286 271 274 273 282 241 247 228 252 20 39 9 225 317 108 305 218 192 253 292 240 271 254 225 225 223 232 269 331 27 119 190
232 239 237 247 258 269 280 298 308 273 265 284 259 275 279 268 264 258 234 245 235 264 314 325 350 260 267 33 166 208 232 238 230 239 257 255 247 228 224 275 185 98 114 244
232 237 244 248 255 256 258 278 290 266 290 253 273 282 273 248 244 247 241 231 243 250 277 269 15 7 224 62 50 51 216 235 236 254 270 274 245 257 232 223 228 172 277 239
235 234 236 241 255 254 267 258 297 278 230 236 253 263 265 242 245 242 235 236 233 242 264 261 241 84 182 118 62 44 314 247 243 248 249 319 257 276 249 221 240 250 291 243
231 237 236 243 242 263 259 300 301 280 236 216 255 227 272 255 245 232 250 239 237 241 239 223 248 238 225 228 245 280 261 282 274 272 259 263 274 314 242 229 246 248 280 257
240 236 244 248 245 257 268 296 301 290 216 224 275 222 260 271 276 248 245 249 229 227 234 217 238 240 231 226 227 237 259 289 293 258 268 267 269 274 247 259 248 272 262 272
247 243 235 238 249 248 269 286 276 246 168 208 235 229 241 289 310 249 258 259 228 229 233 231 231 237 234 243 253 245 246 266 288 279 261 257 263 281 289 282 284 288 281 277
252 257 242 237 245 262 274 281 249 230 219 249 157 219 252 278 296 249 246 238 229 227 227 235 239 243 237 244 254 239 246 255 271 276 282 277 276 284 295 305 290 282 282 282
242 247 251 250 248 252 272 285 301 260 242 221 210 250 279 285 284 252 237 245 230 236 234 231 225 237 235 235 252 259 255 258 263 263 270 266 256 259 277 281 277 277 280 284
252 250 257 262 259 255 264 267 284 276 180 235 239 246 262 315 285 250 239 266 221 189 186 196 213 224 220 229 241 251 263 258 256 258 268 269 262 258 255 258 262 274 282 287
267 251 260 259 259 263 266 268 259 296 249 181 209 242 259 272 301 260 240 266 241 213 198 208 222 231 232 239 247 255 260 258 256 252 259 262 262 262 261 263 271 285 292 295
308 261 257 261 264 267 267 266 270 262 251 240 250 257 255 260 278 264 216 247 237 214 219 217 230 238 241 242 245 250 260 259 253 255 261 264 262 263 264 269 278 287 296 299
322 300 253 254 253 258 264 262 254 263 290 255 225 254 255 246 260 250 226 240 231 232 228 223 231 236 236 236 237 243 253 253 244 251 261 261 259 257 259 270 285 294 296 295
335 280 287 258 256 239 224 217 233 259 311 263 240 252 251 255 252 251 226 217 227 229 232 231 233 239 243 235 235 240 246 238 239 250 259 255 253 251 261 276 285 290 287 284
356 337 337 284 283 225 206 224 234 249 292 295 302 291 262 268 253 242 221 216 226 233 220 220 224 235 237 234 233 236 243 234 235 239 250 249 247 257 275 289 294 290 286 286
336 337 331 300 301 275 254 241 255 248 303 323 327 331 269 263 247 233 219 217 223 236 226 229 234 235 234 229 238 243 246 236 229 235 249 251 252 273 290 296 292 288 286 286
312 328 331 309 331 319 265 257 257 259 299 307 300 290 288 264 249 234 229 226 224 232 218 243 242 246 241 232 239 235 240 236 232 244 254 252 265 280 292 297 288 284 283 286
296 299 311 296 316 277 348 222 227 236 229 265 273 267 273 272 253 249 241 239 239 235 227 253 251 250 235 237 239 239 238 234 240 253 260 258 269 284 299 295 286 284 283 282
279 267 282 250 289 282 144 14 281 319 67 284 277 260 258 262 253 237 240 240 246 250 242 251 254 249 231 240 258 256 259 240 243 254 259 264 282 299 304 293 288 283 280 278
298 260 242 233 266 256 258 283 318 304 191 39 343 276 258 255 260 256 244 241 240 242 245 248 258 240 232 232 233 250 259 250 248 258 256 269 286 295 289 284 283 278 275 277
296 314 268 233 230 247 254 295 327 182 302 331 12 7 283 261 254 242 249 247 242 244 240 243 245 233 228 231 233 256 239 247 241 253 254 271 285 287 280 277 274 273 273 275
288 300 296 252 209 213 275 276 317 161 32 9 312 351 314 290 277 249 241 249 263 251 247 240 237 220 243 235 248 266 233 233 236 244 251 272 284 282 279 275 276 275 273 276
241 264 253 302 191 323 355 41 46 344 295 282 301 345 349 332 292 281 246 251 251 256 244 225 218 229 259 252 245 224 221 223 233 240 254 272 281 281 275 270 272 270 267 269
246 255 271 284 285 231 243 262 250 260 289 290 307 303 305 4 352 346 238 277 271 259 237 228 230 237 262 225 218 229 213 227 231 239 259 277 277 273 270 270 270 267 265 268
256 250 259 265 277 284 292 284 273 270 264 284 285 313 296 332 291 333 25 299 238 229 222 245 250 248 211 218 228 217 221 232 233 249 267 279 277 274 271 268 261 255 257 260
254 260 267 271 271 270 273 274 320 312 270 272 271 266 282 301 311 276 291 263 254 251 273 283 275 239 223 217 209 224 227 235 243 255 272 277 277 276 269 265 257 251 254 250
Height
3162 3165 3166 3169 3170 3170 3170 3171 3171 3169 3169 3168 3168 3166 3166 3165 3165 3165 3167 3166 3165 3167 3168 3168 3171 3172 3174 3174 3174 3174 3176 3177 3178 3178 3179 3181 3181 3181 3181 3180 3180 3180 3179 3181
3159 3157 3164 3167 3169 3169 3168 3169 3169 3170 3169 3169 3167 3165 3162 3160 3160 3161 3160 3163 3162 3163 3166 3168 3170 3174 3174 3173 3171 3172 3174 3177 3178 3178 3178 3180 3181 3181 3180 3180 3181 3180 3181 3182
3154 3156 3160 3162 3165 3167 3166 3166 3166 3170 3170 3169 3165 3162 3160 3157 3157 3156 3158 3159 3160 3160 3163 3166 3169 3170 3171 3171 3170 3170 3173 3175 3177 3177 3178 3178 3179 3176 3177 3179 3179 3179 3179 3180
3150 3153 3156 3159 3160 3164 3162 3164 3165 3165 3166 3166 3164 3160 3156 3156 3155 3153 3154 3154 3154 3157 3162 3163 3167 3169 3169 3169 3170 3171 3173 3175 3177 3177 3178 3178 3178 3177 3175 3177 3177 3178 3179 3179
3146 3147 3151 3153 3157 3161 3158 3163 3161 3161 3159 3162 3161 3162 3152 3153 3150 3148 3149 3151 3151 3153 3158 3162 3164 3167 3167 3168 3170 3172 3174 3175 3175 3175 3176 3176 3177 3176 3175 3175 3175 3177 3178 3177
3142 3145 3147 3150 3153 3158 3157 3159 3158 3155 3156 3158 3157 3156 3151 3148 3145 3145 3146 3144 3148 3152 3156 3159 3163 3165 3167 3168 3170 3172 3172 3174 3175 3174 3175 3174 3175 3175 3175 3175 3175 3177 3175 3174
3141 3140 3143 3146 3147 3152 3154 3155 3154 3155 3156 3153 3152 3152 3145 3144 3142 3141 3142 3143 3146 3149 3152 3156 3160 3162 3164 3166 3168 3169 3171 3172 3173 3173 3173 3173 3173 3174 3174 3173 3172 3173 3172 3171
3136 3137 3139 3142 3144 3147 3149 3151 3151 3153 3151 3146 3147 3145 3142 3140 3140 3139 3140 3140 3143 3145 3148 3153 3155 3159 3160 3163 3164 3167 3169 3170 3170 3170 3170 3170 3171 3171 3170 3169 3170 3169 3169 3169
3133 3133 3136 3138 3141 3144 3144 3145 3146 3145 3144 3143 3140 3139 3138 3137 3136 3136 3136 3137 3138 3141 3144 3149 3152 3155 3157 3160 3161 3164 3166 3167 3168 3168 3168 3169 3169 3169 3168 3168 3168 3168 3167 3167
3129 3129 3130 3133 3136 3137 3140 3142 3142 3141 3143 3143 3137 3136 3135 3134 3132 3133 3132 3135 3137 3139 3142 3146 3149 3152 3155 3157 3160 3162 3163 3164 3164 3164 3165 3165 3166 3166 3166 3166 3166 3166 3165 3164
3123 3125 3125 3128 3127 3130 3135 3135 3137 3136 3135 3134 3137 3130 3131 3132 3131 3129 3131 3132 3133 3136 3139 3143 3145 3149 3153 3155 3157 3158 3160 3161 3162 3162 3162 3163 3163 3162 3163 3163 3163 3162 3161 3159
3119 3117 3118 3119 3123 3126 3126 3128 3130 3130 3131 3129 3128 3127 3127 3127 3128 3127 3131 3131 3132 3134 3136 3140 3143 3148 3151 3152 3154 3155 3156 3157 3158 3158 3158 3159 3159 3160 3159 3159 3159 3158 3156 3155
3117 3114 3113 3113 3118 3119 3120 3122 3123 3122 3122 3120 3123 3124 3123 3123 3124 3124 3126 3127 3128 3130 3133 3136 3140 3145 3147 3149 3150 3151 3153 3153 3155 3155 3155 3156 3156 3157 3156 3156 3155 3154 3153 3151
3116 3114 3112 3111 3111 3113 3115 3117 3117 3116 3117 3115 3113 3116 3118 3119 3119 3121 3122 3125 3127 3129 3130 3134 3138 3141 3143 3144 3146 3148 3149 3150 3151 3152 3153 3154 3154 3154 3153 3153 3152 3151 3149 3148
3115 3111 3109 3107 3107 3107 3108 3111 3112 3112 3113 3110 3110 3111 3113 3115 3115 3116 3119 3120 3123 3125 3127 3130 3133 3136 3138 3140 3142 3145 3146 3147 3149 3150 3152 3152 3151 3152 3151 3150 3148 3147 3146 3145
3113 3112 3109 3105 3106 3106 3105 3106 3108 3108 3108 3107 3106 3107 3106 3106 3110 3111 3113 3117 3119 3121 3124 3125 3127 3129 3132 3135 3138 3141 3142 3146 3147 3148 3149 3148 3148 3148 3148 3146 3143 3142 3141 3141
3111 3110 3108 3105 3103 3101 3102 3102 3103 3104 3102 3103 3102 3102 3102 3101 3104 3107 3109 3112 3114 3116 3119 3120 3121 3125 3131 3136 3138 3136 3138 3142 3145 3145 3145 3144 3144 3144 3143 3141 3139 3138 3137 3137
3107 3108 3107 3104 3100 3099 3099 3098 3099 3096 3098 3099 3100 3100 3100 3099 3099 3102 3104 3107 3110 3113 3115 3116 3119 3124 3131 3136 3136 3136 3134 3138 3139 3141 3141 3139 3138 3139 3137 3136 3136 3134 3133 3132
3102 3101 3103 3102 3099 3095 3095 3096 3095 3095 3096 3094 3095 3096 3097 3095 3095 3096 3100 3103 3104 3108 3110 3111 3115 3120 3127 3132 3133 3135 3136 3136 3137 3137 3138 3136 3135 3133 3131 3131 3131 3132 3130 3129
3096 3096 3098 3098 3098 3094 3092 3092 3094 3092 3094 3092 3091 3092 3092 3091 3090 3094 3094 3096 3098 3100 3103 3107 3112 3116 3122 3124 3124 3129 3135 3135 3134 3134 3133 3132 3130 3127 3126 3126 3127 3127 3126 3126
3092 3091 3089 3089 3092 3091 3089 3088 3090 3091 3095 3089 3088 3088 3087 3086 3085 3087 3087 3088 3092 3094 3097 3101 3107 3112 3113 3115 3118 3122 3124 3128 3129 3130 3130 3128 3126 3124 3123 3122 3123 3123 3123 3122
3088 3088 3086 3085 3085 3088 3086 3086 3090 3092 3089 3087 3086 3084 3083 3081 3078 3080 3080 3083 3087 3089 3092 3097 3101 3104 3108 3112 3112 3112 3118 3121 3124 3126 3125 3123 3123 3121 3120 3119 3120 3121 3120 3119
3085 3084 3085 3086 3083 3084 3083 3085 3087 3088 3088 3086 3084 3083 3081 3078 3076 3075 3078 3077 3080 3084 3087 3093 3097 3100 3105 3106 3106 3108 3109 3115 3120 3122 3119 3119 3118 3117 3118 3117 3116 3116 3116 3116
3080 3079 3080 3082 3080 3079 3080 3081 3082 3084 3086 3084 3082 3081 3079 3078 3078 3074 3073 3076 3081 3083 3087 3093 3095 3099 3101 3100 3104 3106 3106 3111 3115 3116 3115 3115 3113 3113 3115 3114 3113 3113 3112 3113
3076 3076 3075 3075 3077 3077 3078 3078 3079 3081 3082 3081 3080 3079 3078 3077 3077 3078 3074 3077 3079 3079 3083 3087 3093 3097 3098 3100 3102 3101 3105 3110 3111 3112 3111 3111 3109 3110 3110 3110 3109 3109 3110 3110
3069 3069 3070 3069 3073 3072 3074 3075 3076 3077 3073 3075 3076 3077 3076 3076 3076 3077 3078 3076 3079 3082 3082 3084 3087 3090 3095 3100 3102 3105 3107 3108 3108 3108 3107 3106 3105 3106 3106 3105 3106 3105 3107 3107